Location: Newark
(23.3970°S, 47.6010°W)
Time: 15:54:21
(UTC+00:00)

Tiros 1 despin weight - Pass Details

Date: 24 February 2020
Orbit: 593 x 642 km, 48.2° (Epoch: 04 April)

Event Time Altitude Azimuth Distance (km) Brightness Sun altitude
Rises 12:52:39 0° 323° (NW) 2,860 ? 51.4°
Reaches altitude 10° 12:54:56 10° 326° (NW) 1,969 ? 51.9°
Maximum altitude 12:59:25 66° 47° (NE) 684 ? 52.9°
Drops below altitude 10° 13:04:02 10° 129° (SE) 2,019 ? 53.9°
Sets 13:06:24 0° 132° (SE) 2,939 ? 54.4°
